Flag for China Weather past 2 weeks in Hohhot, Inner Mongolia, China

Now
70 °F

Passing clouds.


Feels Like: 70 °F
Forecast: 62 / 83 °F
Wind: 3 mph from East

Location: Hohhot Airport

Current Time: Aug 2, 2015 at 8:50:20 AM

Latest Report: Aug 2, 2015 at 8:00 AM


Visibility: N/A

Pressure: 29.86 "Hg (26.42 "Hg at 1053m altitude)

Humidity: 78%

Dew point: 63 °F

Location of HohhotLocation

Historic Weather in Hohhot — Graph

°F

Hohhot temperature yesterday

Maximum temperature yesterday: 88 °F (at 3:00 PM)
Minimum temperature yesterday: 68 °F (at 3:00 AM)
Average temperature yesterday: 74 °F

Past Weeks' High & Low Weather Summary

 TemperatureHumidityPressure
High93 °F (Jul 27, 4:00 PM)94% (Jul 28, 3:00 AM)29.89 "Hg (Jul 28, 3:00 AM)
Low57 °F (Jul 19, 5:00 AM)25% (Jul 22, 5:00 PM)29.65 "Hg (Jul 28, 5:00 PM)
Average72 °F62%29.79 "Hg
* Reported Jul 18 7:00 AM — Aug 2 7:00 AM, Hohhot, Weather by CustomWeather, © 2015

Note: Actual official high and low records may vary slightly from our data, if they occured in-between our weather recording intervals... More about our weather records

Advertising

Hohhot weather history for previous 24 hours

 ConditionsComfort  
Time TempWeatherWind HumidityBarometerVisibility
7:00 AM
Sun, Aug 2
68 °FPassing clouds.3 mph78%29.83 "HgN/A
6:00 AM63 °FPassing clouds.3 mph88%29.83 "HgN/A
5:00 AM63 °FPassing clouds.3 mph88%29.80 "HgN/A
4:00 AM64 °FPassing clouds.3 mph83%29.80 "HgN/A
3:00 AM66 °FPassing clouds.3 mph83%29.80 "HgN/A
2:00 AM66 °FPassing clouds.1 mph88%29.80 "HgN/A
1:00 AM66 °FPassing clouds.1 mph88%29.80 "HgN/A
12:00 AM68 °FPassing clouds.3 mph88%29.80 "HgN/A
11:00 PM
Sat, Aug 1
70 °FPassing clouds.3 mph83%29.80 "HgN/A
10:00 PM70 °FPassing clouds.1 mph83%29.80 "HgN/A
9:00 PM70 °FPassing clouds.3 mph83%29.80 "HgN/A
8:00 PM70 °FPassing clouds.1 mph83%29.77 "HgN/A
7:00 PM70 °FScattered clouds.3 mph88%29.74 "HgN/A
6:00 PM68 °FScattered clouds.3 mph88%29.74 "HgN/A
5:00 PM68 °FThunderstorms. Scattered clouds.13 mph88%29.77 "HgN/A
4:00 PM86 °FScattered clouds.3 mph55%29.68 "Hg3 mi
3:00 PM88 °FHaze.3 mph52%29.68 "Hg3 mi
2:00 PM86 °FHaze.6 mph59%29.71 "Hg3 mi
1:00 PM84 °FFog.6 mph62%29.74 "Hg2 mi
12:00 PM82 °FFog.1 mph66%29.77 "Hg2 mi
11:00 AM79 °FFog.1 mph70%29.80 "Hg3 mi
10:00 AM77 °FPassing clouds.3 mph69%29.80 "Hg4 mi
9:00 AM77 °FClear.3 mph69%29.80 "Hg4 mi
8:00 AM73 °FFog.3 mph78%29.80 "Hg3 mi
Weather by CustomWeather, © 2015

See weather overviewHow to use our weather pages